Time,TemperatureF,DewpointF,PressureIn,WindDirection,WindDirectionDegrees,WindSpeedMPH,WindSpeedGustMPH,Humidity,HourlyPrecipIn,Conditions,Clouds,dailyrainin,SoftwareType,DateUTC
2013-09-22 00:00:00,64.4,60.8,30.19,SE,135,0.0,0.0,88,0.04,,,0.00,meteobridge,2013-09-22 06:00:00,
2013-09-22 00:07:00,64.4,61.2,30.18,South,180,0.0,1.6,89,0.04,,,0.00,meteobridge,2013-09-22 06:07:00,
2013-09-22 00:13:00,64.4,61.2,30.18,SW,225,1.6,1.6,89,0.04,,,0.00,meteobridge,2013-09-22 06:13:00,
2013-09-22 00:19:00,64.4,61.2,30.18,SW,225,2.2,2.2,89,0.04,,,0.00,meteobridge,2013-09-22 06:19:00,
2013-09-22 00:26:00,64.2,61.0,30.18,SW,225,0.0,0.0,89,0.04,,,0.00,meteobridge,2013-09-22 06:26:00,
2013-09-22 00:32:00,64.2,61.2,30.18,South,180,0.0,0.0,90,0.05,,,0.01,meteobridge,2013-09-22 06:32:00,
2013-09-22 00:38:00,64.2,61.2,30.18,South,180,0.0,2.2,90,0.05,,,0.01,meteobridge,2013-09-22 06:38:00,
2013-09-22 00:45:00,64.2,61.2,30.17,South,180,0.0,0.0,90,0.05,,,0.01,meteobridge,2013-09-22 06:45:00,
2013-09-22 00:51:00,64.2,61.2,30.17,South,180,0.7,0.7,90,0.04,,,0.01,meteobridge,2013-09-22 06:51:00,
2013-09-22 00:57:00,64.0,61.0,30.17,South,180,0.0,0.0,90,0.02,,,0.01,meteobridge,2013-09-22 06:57:00,
2013-09-22 01:04:00,64.0,61.3,30.16,West,270,0.7,0.7,91,0.01,,,0.01,meteobridge,2013-09-22 07:04:00,
2013-09-22 01:10:00,63.9,61.2,30.16,South,180,1.6,2.2,91,0.01,,,0.01,meteobridge,2013-09-22 07:10:00,
2013-09-22 01:16:00,64.0,61.3,30.16,South,180,0.0,0.0,91,0.01,,,0.01,meteobridge,2013-09-22 07:16:00,
2013-09-22 01:23:00,64.0,61.3,30.16,South,180,0.0,0.0,91,0.01,,,0.01,meteobridge,2013-09-22 07:23:00,
2013-09-22 01:29:00,64.0,61.3,30.15,SE,135,0.0,0.0,91,0.00,,,0.01,meteobridge,2013-09-22 07:29:00,
2013-09-22 01:35:00,64.0,61.3,30.15,East,90,0.0,0.0,91,0.00,,,0.01,meteobridge,2013-09-22 07:35:00,
2013-09-22 01:42:00,64.0,61.3,30.15,East,90,0.7,0.7,91,0.00,,,0.01,meteobridge,2013-09-22 07:42:00,
2013-09-22 01:48:00,64.0,61.3,30.15,East,90,0.0,0.0,91,0.00,,,0.01,meteobridge,2013-09-22 07:48:00,
2013-09-22 01:54:00,64.0,61.3,30.15,East,90,0.0,0.0,91,0.00,,,0.01,meteobridge,2013-09-22 07:54:00,
2013-09-22 02:01:00,64.0,61.3,30.15,NE,45,3.1,3.1,91,0.00,,,0.01,meteobridge,2013-09-22 08:01:00,
2013-09-22 02:07:00,63.9,61.2,30.14,North,0,0.0,2.2,91,0.00,,,0.01,meteobridge,2013-09-22 08:07:00,
2013-09-22 02:13:00,63.9,61.2,30.14,West,270,0.0,0.0,91,0.00,,,0.01,meteobridge,2013-09-22 08:13:00,
2013-09-22 02:20:00,63.9,61.2,30.16,West,270,0.0,1.6,91,0.00,,,0.01,meteobridge,2013-09-22 08:20:00,
2013-09-22 02:26:00,63.9,61.2,30.16,South,180,0.0,0.0,91,0.00,,,0.01,meteobridge,2013-09-22 08:26:00,
2013-09-22 02:32:00,64.0,61.3,30.15,South,180,0.0,0.0,91,0.00,,,0.01,meteobridge,2013-09-22 08:32:00,
2013-09-22 02:39:00,64.0,61.3,30.16,SE,135,0.0,0.0,91,0.00,,,0.01,meteobridge,2013-09-22 08:39:00,
2013-09-22 02:45:00,64.0,61.3,30.16,South,180,0.0,0.0,91,0.00,,,0.01,meteobridge,2013-09-22 08:45:00,
2013-09-22 02:51:00,64.0,61.3,30.16,South,180,0.0,2.2,91,0.00,,,0.01,meteobridge,2013-09-22 08:51:00,
2013-09-22 02:58:00,64.0,61.3,30.16,South,180,2.2,3.1,91,0.00,,,0.01,meteobridge,2013-09-22 08:58:00,
2013-09-22 03:04:00,64.0,61.3,30.16,South,180,0.0,0.7,91,0.00,,,0.01,meteobridge,2013-09-22 09:04:00,
2013-09-22 03:10:00,64.0,61.3,30.16,South,180,0.7,1.6,91,0.00,,,0.01,meteobridge,2013-09-22 09:10:00,
2013-09-22 03:17:00,64.0,61.3,30.16,SE,135,1.6,2.2,91,0.00,,,0.01,meteobridge,2013-09-22 09:17:00,
2013-09-22 03:23:00,64.0,61.3,30.16,SW,225,3.1,3.1,91,0.00,,,0.01,meteobridge,2013-09-22 09:23:00,
2013-09-22 03:30:00,64.0,61.3,30.17,SE,135,3.1,3.1,91,0.00,,,0.01,meteobridge,2013-09-22 09:30:00,
2013-09-22 03:36:00,63.9,61.2,30.16,South,180,3.8,6.9,91,0.00,,,0.01,meteobridge,2013-09-22 09:36:00,
2013-09-22 03:42:00,64.0,60.8,30.16,SE,135,0.0,1.6,89,0.00,,,0.01,meteobridge,2013-09-22 09:42:00,
2013-09-22 03:49:00,64.0,60.4,30.16,South,180,0.0,3.1,88,0.00,,,0.01,meteobridge,2013-09-22 09:49:00,
2013-09-22 03:55:00,63.9,60.3,30.15,SW,225,2.2,2.2,88,0.00,,,0.01,meteobridge,2013-09-22 09:55:00,
2013-09-22 04:01:00,63.9,59.9,30.15,West,270,3.1,3.1,87,0.00,,,0.01,meteobridge,2013-09-22 10:01:00,
2013-09-22 04:08:00,63.7,59.7,30.15,West,270,3.8,3.8,87,0.00,,,0.01,meteobridge,2013-09-22 10:08:00,
2013-09-22 04:14:00,63.7,59.7,30.16,East,90,0.0,2.2,87,0.00,,,0.01,meteobridge,2013-09-22 10:14:00,
2013-09-22 04:20:00,63.5,59.5,30.16,East,90,0.0,1.6,87,0.00,,,0.01,meteobridge,2013-09-22 10:20:00,
2013-09-22 04:27:00,63.5,59.5,30.17,East,90,0.0,0.0,87,0.00,,,0.01,meteobridge,2013-09-22 10:27:00,
2013-09-22 04:33:00,63.7,60.1,30.17,South,180,0.0,0.0,88,0.00,,,0.01,meteobridge,2013-09-22 10:33:00,
2013-09-22 04:39:00,63.9,60.3,30.17,East,90,0.0,0.0,88,0.01,,,0.02,meteobridge,2013-09-22 10:39:00,
2013-09-22 04:46:00,63.9,60.6,30.17,East,90,0.0,0.0,89,0.02,,,0.04,meteobridge,2013-09-22 10:46:00,
2013-09-22 04:52:00,63.9,60.6,30.17,East,90,0.0,0.0,89,0.02,,,0.04,meteobridge,2013-09-22 10:52:00,
2013-09-22 05:07:00,63.9,60.6,30.17,North,0,0.0,0.0,89,0.02,,,0.04,meteobridge,2013-09-22 11:07:00,
2013-09-22 05:13:00,63.9,60.8,30.18,North,0,0.0,0.0,90,0.02,,,0.04,meteobridge,2013-09-22 11:13:00,
2013-09-22 05:19:00,63.9,60.8,30.17,North,0,0.0,0.0,90,0.02,,,0.04,meteobridge,2013-09-22 11:19:00,
2013-09-22 05:26:00,63.9,60.8,30.17,North,0,0.0,0.0,90,0.02,,,0.04,meteobridge,2013-09-22 11:26:00,
2013-09-22 05:32:00,63.9,60.8,30.18,North,0,0.0,0.0,90,0.02,,,0.04,meteobridge,2013-09-22 11:32:00,
2013-09-22 05:39:00,63.9,60.8,30.18,West,270,0.0,0.0,90,0.02,,,0.05,meteobridge,2013-09-22 11:39:00,
2013-09-22 05:45:00,63.7,60.6,30.19,South,180,0.0,1.6,90,0.01,,,0.05,meteobridge,2013-09-22 11:45:00,
2013-09-22 05:51:00,63.7,60.6,30.19,South,180,0.0,0.0,90,0.01,,,0.05,meteobridge,2013-09-22 11:51:00,
2013-09-22 05:58:00,63.9,60.8,30.19,South,180,0.0,0.0,90,0.01,,,0.05,meteobridge,2013-09-22 11:58:00,
2013-09-22 06:04:00,63.5,60.8,30.19,South,180,0.0,0.0,91,0.01,,,0.05,meteobridge,2013-09-22 12:04:00,
2013-09-22 06:10:00,63.5,60.8,30.19,South,180,0.0,0.0,91,0.02,,,0.06,meteobridge,2013-09-22 12:10:00,
2013-09-22 06:17:00,63.5,60.8,30.20,West,270,0.0,0.0,91,0.02,,,0.06,meteobridge,2013-09-22 12:17:00,
2013-09-22 06:23:00,63.7,61.0,30.20,West,270,0.0,0.0,91,0.02,,,0.06,meteobridge,2013-09-22 12:23:00,
2013-09-22 06:29:00,63.7,61.0,30.21,West,270,0.0,0.0,91,0.04,,,0.07,meteobridge,2013-09-22 12:29:00,
2013-09-22 06:36:00,63.7,61.0,30.20,South,180,0.0,0.0,91,0.04,,,0.07,meteobridge,2013-09-22 12:36:00,
2013-09-22 06:42:00,63.7,61.0,30.20,South,180,0.0,0.0,91,0.02,,,0.07,meteobridge,2013-09-22 12:42:00,
2013-09-22 06:48:00,63.7,61.0,30.20,South,180,0.0,0.0,91,0.04,,,0.08,meteobridge,2013-09-22 12:48:00,
2013-09-22 06:55:00,63.5,60.8,30.20,SW,225,0.0,0.0,91,0.04,,,0.08,meteobridge,2013-09-22 12:55:00,
2013-09-22 07:01:00,63.5,60.8,30.21,South,180,0.0,0.0,91,0.04,,,0.08,meteobridge,2013-09-22 13:01:00,
2013-09-22 07:07:00,63.5,60.8,30.22,South,180,0.0,0.0,91,0.04,,,0.08,meteobridge,2013-09-22 13:07:00,
2013-09-22 07:14:00,63.5,60.8,30.22,South,180,0.0,0.0,91,0.02,,,0.08,meteobridge,2013-09-22 13:14:00,
2013-09-22 07:20:00,63.5,60.4,30.22,South,180,0.0,0.0,90,0.04,,,0.09,meteobridge,2013-09-22 13:20:00,
2013-09-22 07:26:00,63.7,60.6,30.22,SW,225,0.0,0.0,90,0.04,,,0.09,meteobridge,2013-09-22 13:26:00,
2013-09-22 07:35:00,63.7,60.6,30.23,South,180,0.0,0.0,90,0.02,,,0.09,meteobridge,2013-09-22 13:35:00,
2013-09-22 07:41:00,63.7,60.4,30.23,South,180,0.0,0.0,89,0.04,,,0.11,meteobridge,2013-09-22 13:41:00,
2013-09-22 07:48:00,63.9,60.6,30.23,South,180,0.0,0.0,89,0.02,,,0.11,meteobridge,2013-09-22 13:48:00,
2013-09-22 07:54:00,63.7,60.4,30.23,South,180,3.1,3.1,89,0.02,,,0.11,meteobridge,2013-09-22 13:54:00,
2013-09-22 08:00:00,63.7,60.4,30.24,South,180,1.6,3.8,89,0.02,,,0.11,meteobridge,2013-09-22 14:00:00,
2013-09-22 08:07:00,63.7,60.1,30.23,South,180,0.0,0.0,88,0.04,,,0.12,meteobridge,2013-09-22 14:07:00,
2013-09-22 08:13:00,63.7,60.1,30.24,South,180,1.6,1.6,88,0.04,,,0.12,meteobridge,2013-09-22 14:13:00,
2013-09-22 08:19:00,63.7,60.1,30.24,South,180,0.0,0.0,88,0.02,,,0.12,meteobridge,2013-09-22 14:19:00,
2013-09-22 08:26:00,63.9,60.3,30.24,South,180,0.0,0.0,88,0.02,,,0.12,meteobridge,2013-09-22 14:26:00,
2013-09-22 08:32:00,63.9,60.3,30.24,South,180,0.0,0.0,88,0.02,,,0.12,meteobridge,2013-09-22 14:32:00,
2013-09-22 08:38:00,64.0,60.4,30.24,East,90,0.0,0.0,88,0.04,,,0.13,meteobridge,2013-09-22 14:38:00,
2013-09-22 08:45:00,64.2,60.6,30.24,SE,135,0.0,0.0,88,0.02,,,0.13,meteobridge,2013-09-22 14:45:00,
2013-09-22 08:51:00,64.2,60.6,30.25,West,270,0.0,0.0,88,0.02,,,0.13,meteobridge,2013-09-22 14:51:00,
2013-09-22 08:57:00,64.0,60.8,30.25,West,270,0.0,0.0,89,0.04,,,0.14,meteobridge,2013-09-22 14:57:00,
2013-09-22 09:04:00,63.9,60.6,30.25,West,270,0.0,0.0,89,0.04,,,0.14,meteobridge,2013-09-22 15:04:00,
2013-09-22 09:10:00,63.9,60.6,30.25,South,180,0.0,0.0,89,0.04,,,0.15,meteobridge,2013-09-22 15:10:00,
2013-09-22 09:16:00,63.9,60.6,30.26,SW,225,0.7,1.6,89,0.04,,,0.15,meteobridge,2013-09-22 15:16:00,
2013-09-22 09:23:00,63.9,60.6,30.26,South,180,0.0,0.0,89,0.05,,,0.17,meteobridge,2013-09-22 15:23:00,
2013-09-22 09:29:00,63.9,60.8,30.26,South,180,0.7,0.7,90,0.05,,,0.17,meteobridge,2013-09-22 15:29:00,
2013-09-22 09:35:00,63.9,60.8,30.26,South,180,0.0,0.0,90,0.04,,,0.17,meteobridge,2013-09-22 15:35:00,
2013-09-22 09:42:00,63.9,60.8,30.27,SW,225,0.0,0.0,90,0.04,,,0.17,meteobridge,2013-09-22 15:42:00,
2013-09-22 09:48:00,63.9,60.8,30.26,West,270,2.2,2.2,90,0.05,,,0.18,meteobridge,2013-09-22 15:48:00,
2013-09-22 09:54:00,64.0,61.0,30.26,NW,315,0.7,1.6,90,0.04,,,0.18,meteobridge,2013-09-22 15:54:00,
2013-09-22 10:01:00,64.2,61.2,30.26,West,270,0.7,0.7,90,0.04,,,0.18,meteobridge,2013-09-22 16:01:00,
2013-09-22 10:07:00,64.2,61.2,30.26,West,270,2.2,2.2,90,0.04,,,0.19,meteobridge,2013-09-22 16:07:00,
2013-09-22 10:13:00,64.2,61.2,30.26,West,270,0.7,1.6,90,0.04,,,0.19,meteobridge,2013-09-22 16:13:00,
2013-09-22 10:20:00,64.4,61.3,30.26,NW,315,2.2,2.2,90,0.04,,,0.19,meteobridge,2013-09-22 16:20:00,
2013-09-22 10:28:00,64.4,61.3,30.26,West,270,0.0,0.0,90,0.02,,,0.19,meteobridge,2013-09-22 16:28:00,
2013-09-22 10:35:00,64.8,61.7,30.26,SW,225,0.0,0.0,90,0.02,,,0.19,meteobridge,2013-09-22 16:35:00,
2013-09-22 10:41:00,64.6,61.3,30.26,SW,225,0.7,0.7,89,0.02,,,0.19,meteobridge,2013-09-22 16:41:00,
2013-09-22 10:47:00,64.6,61.3,30.26,West,270,0.0,1.6,89,0.01,,,0.19,meteobridge,2013-09-22 16:47:00,
2013-09-22 10:54:00,64.8,61.5,30.26,West,270,0.0,1.6,89,0.01,,,0.19,meteobridge,2013-09-22 16:54:00,
2013-09-22 11:00:00,64.8,61.2,30.26,SW,225,1.6,1.6,88,0.01,,,0.19,meteobridge,2013-09-22 17:00:00,
2013-09-22 11:06:00,64.8,61.2,30.26,West,270,2.2,2.2,88,0.00,,,0.19,meteobridge,2013-09-22 17:06:00,
2013-09-22 11:13:00,64.6,61.0,30.25,SW,225,1.6,2.2,88,0.00,,,0.19,meteobridge,2013-09-22 17:13:00,
2013-09-22 11:19:00,64.4,61.2,30.25,West,270,4.5,4.5,89,0.00,,,0.19,meteobridge,2013-09-22 17:19:00,
2013-09-22 11:25:00,64.4,61.2,30.25,West,270,3.8,4.5,89,0.00,,,0.19,meteobridge,2013-09-22 17:25:00,
2013-09-22 11:32:00,64.4,61.2,30.24,NW,315,4.5,4.5,89,0.00,,,0.19,meteobridge,2013-09-22 17:32:00,
2013-09-22 11:38:00,63.9,60.6,30.24,West,270,6.0,6.0,89,0.00,,,0.19,meteobridge,2013-09-22 17:38:00,
2013-09-22 11:44:00,63.9,60.8,30.24,NE,45,0.7,1.6,90,0.00,,,0.19,meteobridge,2013-09-22 17:44:00,
2013-09-22 11:51:00,63.9,60.8,30.24,North,0,1.6,3.1,90,0.00,,,0.19,meteobridge,2013-09-22 17:51:00,
2013-09-22 11:57:00,63.9,60.8,30.24,NW,315,1.6,3.1,90,0.00,,,0.19,meteobridge,2013-09-22 17:57:00,
2013-09-22 12:03:00,64.4,61.3,30.24,NW,315,0.7,3.1,90,0.00,,,0.19,meteobridge,2013-09-22 18:03:00,
2013-09-22 12:10:00,64.4,61.2,30.23,NW,315,2.2,4.5,89,0.00,,,0.19,meteobridge,2013-09-22 18:10:00,
2013-09-22 12:16:00,64.8,61.5,30.23,West,270,3.1,3.8,89,0.00,,,0.19,meteobridge,2013-09-22 18:16:00,
2013-09-22 12:22:00,64.6,61.0,30.23,West,270,4.5,5.4,88,0.00,,,0.19,meteobridge,2013-09-22 18:22:00,
2013-09-22 12:29:00,64.4,60.8,30.23,West,270,3.1,5.4,88,0.00,,,0.19,meteobridge,2013-09-22 18:29:00,
2013-09-22 12:35:00,64.9,61.7,30.23,North,0,0.7,1.6,89,0.00,,,0.19,meteobridge,2013-09-22 18:35:00,
2013-09-22 12:41:00,64.6,61.3,30.22,West,270,1.6,1.6,89,0.00,,,0.19,meteobridge,2013-09-22 18:41:00,
2013-09-22 12:48:00,64.6,61.3,30.22,NW,315,3.1,3.1,89,0.00,,,0.19,meteobridge,2013-09-22 18:48:00,
2013-09-22 12:54:00,64.6,61.0,30.22,West,270,5.4,5.4,88,0.00,,,0.19,meteobridge,2013-09-22 18:54:00,
2013-09-22 13:00:00,64.0,60.4,30.22,West,270,2.2,3.1,88,0.00,,,0.19,meteobridge,2013-09-22 19:00:00,
2013-09-22 13:07:00,64.4,60.8,30.21,NW,315,0.7,2.2,88,0.00,,,0.19,meteobridge,2013-09-22 19:07:00,
2013-09-22 13:13:00,65.1,61.5,30.21,NW,315,3.1,3.1,88,0.00,,,0.19,meteobridge,2013-09-22 19:13:00,
2013-09-22 13:20:00,65.3,61.0,30.20,NW,315,1.6,2.2,86,0.00,,,0.19,meteobridge,2013-09-22 19:20:00,
2013-09-22 13:26:00,65.7,61.0,30.20,West,270,0.7,1.6,85,0.00,,,0.19,meteobridge,2013-09-22 19:26:00,
2013-09-22 13:32:00,65.1,60.4,30.20,West,270,2.2,3.1,85,0.00,,,0.19,meteobridge,2013-09-22 19:32:00,
2013-09-22 13:39:00,65.1,60.8,30.19,NW,315,3.1,3.1,86,0.00,,,0.19,meteobridge,2013-09-22 19:39:00,
2013-09-22 13:45:00,65.3,60.6,30.19,West,270,2.2,3.1,85,0.00,,,0.19,meteobridge,2013-09-22 19:45:00,
2013-09-22 13:51:00,66.6,61.2,30.18,North,0,0.0,0.0,83,0.00,,,0.19,meteobridge,2013-09-22 19:51:00,
2013-09-22 13:58:00,67.1,60.8,30.18,West,270,0.0,0.0,80,0.00,,,0.19,meteobridge,2013-09-22 19:58:00,
2013-09-22 14:04:00,67.8,60.6,30.18,West,270,0.0,0.0,78,0.00,,,0.19,meteobridge,2013-09-22 20:04:00,
2013-09-22 14:10:00,67.8,61.0,30.18,West,270,0.0,0.0,79,0.00,,,0.19,meteobridge,2013-09-22 20:10:00,
2013-09-22 14:17:00,67.6,60.3,30.17,South,180,3.1,3.1,77,0.00,,,0.19,meteobridge,2013-09-22 20:17:00,
2013-09-22 14:23:00,67.5,60.4,30.17,South,180,0.0,0.0,78,0.00,,,0.19,meteobridge,2013-09-22 20:23:00,
2013-09-22 14:29:00,68.5,60.3,30.17,South,180,0.0,0.0,75,0.00,,,0.19,meteobridge,2013-09-22 20:29:00,
2013-09-22 14:36:00,68.4,59.7,30.17,West,270,0.0,2.2,74,0.00,,,0.19,meteobridge,2013-09-22 20:36:00,
2013-09-22 14:42:00,68.4,60.1,30.16,South,180,3.1,3.1,75,0.00,,,0.19,meteobridge,2013-09-22 20:42:00,
2013-09-22 14:48:00,68.2,59.9,30.16,West,270,1.6,2.2,75,0.00,,,0.19,meteobridge,2013-09-22 20:48:00,
2013-09-22 14:55:00,68.4,60.1,30.16,South,180,0.0,0.0,75,0.00,,,0.19,meteobridge,2013-09-22 20:55:00,
2013-09-22 15:01:00,69.4,61.2,30.16,South,180,0.0,0.0,75,0.00,,,0.19,meteobridge,2013-09-22 21:01:00,
2013-09-22 15:07:00,69.1,60.4,30.16,East,90,0.0,2.2,74,0.00,,,0.19,meteobridge,2013-09-22 21:07:00,
2013-09-22 15:14:00,69.3,60.3,30.16,East,90,0.0,3.1,73,0.00,,,0.19,meteobridge,2013-09-22 21:14:00,
2013-09-22 15:20:00,70.0,60.6,30.16,SE,135,0.0,0.7,72,0.00,,,0.19,meteobridge,2013-09-22 21:20:00,
2013-09-22 15:26:00,69.6,60.6,30.16,South,180,1.6,3.1,73,0.00,,,0.19,meteobridge,2013-09-22 21:26:00,
2013-09-22 15:33:00,68.7,59.7,30.15,SE,135,5.4,6.9,73,0.00,,,0.19,meteobridge,2013-09-22 21:33:00,
2013-09-22 15:39:00,68.4,59.7,30.15,SE,135,9.2,9.8,74,0.00,,,0.19,meteobridge,2013-09-22 21:39:00,
2013-09-22 15:45:00,68.4,60.1,30.15,SE,135,13.0,13.0,75,0.00,,,0.19,meteobridge,2013-09-22 21:45:00,
2013-09-22 15:52:00,68.4,60.4,30.14,East,90,7.6,9.2,76,0.00,,,0.19,meteobridge,2013-09-22 21:52:00,
2013-09-22 16:00:00,68.2,60.6,30.14,SE,135,18.3,18.3,77,0.00,,,0.19,meteobridge,2013-09-22 22:00:00,
2013-09-22 16:07:00,68.0,60.8,30.14,South,180,16.8,16.8,78,0.00,,,0.19,meteobridge,2013-09-22 22:07:00,
2013-09-22 16:13:00,68.0,60.8,30.14,South,180,13.6,15.2,78,0.01,,,0.20,meteobridge,2013-09-22 22:13:00,
2013-09-22 16:19:00,68.0,60.8,30.14,South,180,10.7,15.9,78,0.01,,,0.20,meteobridge,2013-09-22 22:19:00,
2013-09-22 16:26:00,68.0,60.8,30.14,SE,135,12.1,15.9,78,0.01,,,0.20,meteobridge,2013-09-22 22:26:00,
2013-09-22 16:32:00,68.0,60.8,30.14,SE,135,16.8,16.8,78,0.01,,,0.20,meteobridge,2013-09-22 22:32:00,
2013-09-22 16:38:00,67.8,61.0,30.14,East,90,15.9,17.4,79,0.01,,,0.20,meteobridge,2013-09-22 22:38:00,
2013-09-22 16:45:00,67.6,61.0,30.15,East,90,16.8,16.8,79,0.01,,,0.20,meteobridge,2013-09-22 22:45:00,
2013-09-22 16:51:00,67.5,61.2,30.15,South,180,13.6,13.6,80,0.01,,,0.20,meteobridge,2013-09-22 22:51:00,
2013-09-22 16:57:00,67.3,61.0,30.15,SE,135,8.3,12.1,80,0.01,,,0.20,meteobridge,2013-09-22 22:57:00,
2013-09-22 17:04:00,67.1,61.2,30.16,SW,225,4.5,11.4,81,0.01,,,0.20,meteobridge,2013-09-22 23:04:00,
2013-09-22 17:10:00,67.1,61.3,30.17,West,270,3.8,3.8,82,0.00,,,0.20,meteobridge,2013-09-22 23:10:00,
2013-09-22 17:16:00,67.1,61.2,30.17,East,90,4.5,6.9,81,0.00,,,0.20,meteobridge,2013-09-22 23:16:00,
2013-09-22 17:23:00,66.4,61.3,30.18,North,0,7.6,7.6,84,0.00,,,0.20,meteobridge,2013-09-22 23:23:00,
2013-09-22 17:29:00,66.0,61.7,30.18,NW,315,9.2,9.2,86,0.00,,,0.20,meteobridge,2013-09-22 23:29:00,
2013-09-22 17:35:00,65.8,61.5,30.19,North,0,3.8,4.5,86,0.00,,,0.20,meteobridge,2013-09-22 23:35:00,
2013-09-22 17:42:00,65.7,61.3,30.19,North,0,2.2,3.1,86,0.00,,,0.20,meteobridge,2013-09-22 23:42:00,
2013-09-22 17:48:00,65.8,61.5,30.19,North,0,0.0,0.7,86,0.00,,,0.20,meteobridge,2013-09-22 23:48:00,
2013-09-22 17:54:00,65.8,61.5,30.20,South,180,0.0,0.0,86,0.00,,,0.20,meteobridge,2013-09-22 23:54:00,
2013-09-22 18:01:00,65.8,61.5,30.20,South,180,0.0,0.0,86,0.00,,,0.20,meteobridge,2013-09-23 00:01:00,
2013-09-22 18:07:00,64.4,60.4,30.20,SE,135,5.4,7.6,87,0.00,,,0.20,meteobridge,2013-09-23 00:07:00,
2013-09-22 18:13:00,63.9,59.9,30.21,North,0,2.2,3.8,87,0.00,,,0.20,meteobridge,2013-09-23 00:13:00,
2013-09-22 18:20:00,63.9,60.6,30.21,NW,315,4.5,5.4,89,0.00,,,0.20,meteobridge,2013-09-23 00:20:00,
2013-09-22 18:26:00,63.5,60.3,30.21,NW,315,4.5,4.5,89,0.00,,,0.20,meteobridge,2013-09-23 00:26:00,
2013-09-22 18:32:00,62.8,59.7,30.21,NW,315,5.4,6.9,90,0.00,,,0.20,meteobridge,2013-09-23 00:32:00,
2013-09-22 18:39:00,62.1,59.4,30.21,NE,45,3.8,4.5,91,0.00,,,0.20,meteobridge,2013-09-23 00:39:00,
2013-09-22 18:45:00,61.7,59.0,30.21,North,0,7.6,7.6,91,0.00,,,0.20,meteobridge,2013-09-23 00:45:00,
2013-09-22 18:52:00,61.5,58.8,30.21,East,90,3.8,4.5,91,0.00,,,0.20,meteobridge,2013-09-23 00:52:00,
2013-09-22 18:58:00,61.3,58.6,30.22,North,0,2.2,3.8,91,0.00,,,0.20,meteobridge,2013-09-23 00:58:00,
2013-09-22 19:04:00,61.3,58.6,30.22,NE,45,0.0,0.0,91,0.00,,,0.20,meteobridge,2013-09-23 01:04:00,
2013-09-22 19:11:00,61.3,59.0,30.22,SE,135,2.2,4.5,92,0.00,,,0.20,meteobridge,2013-09-23 01:11:00,
2013-09-22 19:17:00,61.3,59.0,30.22,East,90,1.6,3.1,92,0.00,,,0.20,meteobridge,2013-09-23 01:17:00,
2013-09-22 19:23:00,61.5,59.2,30.23,North,0,0.0,0.0,92,0.00,,,0.20,meteobridge,2013-09-23 01:23:00,
2013-09-22 19:30:00,61.7,59.4,30.22,West,270,0.0,0.0,92,0.00,,,0.20,meteobridge,2013-09-23 01:30:00,
2013-09-22 19:36:00,61.5,59.2,30.23,South,180,0.0,0.0,92,0.00,,,0.20,meteobridge,2013-09-23 01:36:00,
2013-09-22 19:42:00,61.7,59.4,30.23,SE,135,0.0,0.0,92,0.00,,,0.20,meteobridge,2013-09-23 01:42:00,
2013-09-22 19:49:00,61.9,59.5,30.23,East,90,0.0,0.0,92,0.00,,,0.20,meteobridge,2013-09-23 01:49:00,
2013-09-22 19:55:00,61.7,59.4,30.23,East,90,2.2,2.2,92,0.00,,,0.20,meteobridge,2013-09-23 01:55:00,
2013-09-22 20:01:00,61.7,59.4,30.23,East,90,0.0,1.6,92,0.00,,,0.20,meteobridge,2013-09-23 02:01:00,
2013-09-22 20:08:00,61.9,59.5,30.23,NE,45,0.0,0.0,92,0.01,,,0.21,meteobridge,2013-09-23 02:08:00,
2013-09-22 20:14:00,61.9,59.5,30.23,West,270,0.0,2.2,92,0.01,,,0.21,meteobridge,2013-09-23 02:14:00,
2013-09-22 20:20:00,61.9,59.5,30.24,NW,315,0.0,2.2,92,0.01,,,0.21,meteobridge,2013-09-23 02:20:00,
2013-09-22 20:27:00,61.7,59.4,30.24,West,270,0.0,0.0,92,0.02,,,0.22,meteobridge,2013-09-23 02:27:00,
2013-09-22 20:33:00,61.9,59.5,30.24,SE,135,1.6,1.6,92,0.02,,,0.22,meteobridge,2013-09-23 02:33:00,
2013-09-22 20:39:00,61.7,59.4,30.24,NE,45,3.1,3.1,92,0.02,,,0.22,meteobridge,2013-09-23 02:39:00,
2013-09-22 20:46:00,61.7,59.4,30.24,NE,45,1.6,1.6,92,0.02,,,0.22,meteobridge,2013-09-23 02:46:00,
2013-09-22 20:54:00,61.5,59.2,30.24,NE,45,4.5,4.5,92,0.02,,,0.22,meteobridge,2013-09-23 02:54:00,
2013-09-22 21:01:00,61.5,59.2,30.24,NE,45,1.6,1.6,92,0.02,,,0.22,meteobridge,2013-09-23 03:01:00,
2013-09-22 21:11:00,61.3,59.0,30.24,NE,45,3.8,3.8,92,0.01,,,0.22,meteobridge,2013-09-23 03:11:00,
2013-09-22 21:20:00,61.3,59.0,30.24,NE,45,0.0,0.0,92,0.01,,,0.22,meteobridge,2013-09-23 03:20:00,
2013-09-22 21:26:00,61.7,59.4,30.24,NE,45,0.0,0.0,92,0.00,,,0.22,meteobridge,2013-09-23 03:26:00,
2013-09-22 21:32:00,61.5,59.2,30.24,North,0,0.0,0.0,92,0.00,,,0.22,meteobridge,2013-09-23 03:32:00,
2013-09-22 21:39:00,61.5,59.2,30.24,North,0,0.0,0.0,92,0.00,,,0.22,meteobridge,2013-09-23 03:39:00,
2013-09-22 21:45:00,61.7,59.4,30.23,NW,315,1.6,1.6,92,0.00,,,0.22,meteobridge,2013-09-23 03:45:00,
2013-09-22 21:51:00,61.5,59.2,30.24,NE,45,0.0,0.7,92,0.00,,,0.22,meteobridge,2013-09-23 03:51:00,
2013-09-22 21:58:00,61.5,59.2,30.23,North,0,1.6,1.6,92,0.00,,,0.22,meteobridge,2013-09-23 03:58:00,
2013-09-22 22:02:00,61.3,59.0,30.23,East,90,0.0,0.0,92,0.00,,,0.22,meteobridge,2013-09-23 04:02:00,
2013-09-22 22:04:00,61.3,59.0,30.23,East,90,0.0,0.0,92,0.00,,,0.22,meteobridge,2013-09-23 04:04:00,
2013-09-22 22:06:00,61.3,59.0,30.23,East,90,0.0,0.0,92,0.00,,,0.22,meteobridge,2013-09-23 04:06:00,
2013-09-22 22:12:00,61.3,59.0,30.23,East,90,3.8,3.8,92,0.00,,,0.22,meteobridge,2013-09-23 04:12:00,
2013-09-22 22:15:00,61.3,59.0,30.23,East,90,1.6,3.1,92,0.00,,,0.22,meteobridge,2013-09-23 04:15:00,
2013-09-22 22:21:00,61.3,59.0,30.23,NE,45,0.0,0.0,92,0.00,,,0.22,meteobridge,2013-09-23 04:21:00,
2013-09-22 22:25:00,61.3,59.0,30.23,NE,45,0.0,0.0,92,0.00,,,0.22,meteobridge,2013-09-23 04:25:00,
2013-09-22 22:31:00,61.3,59.0,30.23,North,0,0.0,0.0,92,0.00,,,0.22,meteobridge,2013-09-23 04:31:00,
2013-09-22 22:38:00,61.2,58.8,30.22,North,0,0.0,0.0,92,0.00,,,0.22,meteobridge,2013-09-23 04:38:00,
2013-09-22 22:44:00,61.2,58.8,30.22,North,0,0.0,0.0,92,0.00,,,0.22,meteobridge,2013-09-23 04:44:00,
2013-09-22 22:50:00,61.3,59.0,30.22,West,270,0.0,0.0,92,0.00,,,0.22,meteobridge,2013-09-23 04:50:00,
2013-09-22 22:57:00,61.3,59.0,30.22,West,270,0.0,0.0,92,0.00,,,0.22,meteobridge,2013-09-23 04:57:00,
2013-09-22 23:03:00,61.5,59.2,30.22,North,0,0.0,0.0,92,0.00,,,0.22,meteobridge,2013-09-23 05:03:00,
2013-09-22 23:09:00,61.5,59.2,30.22,East,90,0.0,0.0,92,0.00,,,0.22,meteobridge,2013-09-23 05:09:00,
2013-09-22 23:16:00,61.3,59.0,30.22,East,90,0.0,0.0,92,0.00,,,0.22,meteobridge,2013-09-23 05:16:00,
2013-09-22 23:22:00,61.5,59.2,30.22,East,90,0.0,0.0,92,0.00,,,0.22,meteobridge,2013-09-23 05:22:00,
2013-09-22 23:29:00,61.5,59.2,30.22,East,90,0.0,0.0,92,0.00,,,0.22,meteobridge,2013-09-23 05:29:00,
2013-09-22 23:35:00,61.5,58.8,30.22,East,90,0.0,0.0,91,0.00,,,0.22,meteobridge,2013-09-23 05:35:00,
2013-09-22 23:41:00,61.5,58.8,30.22,East,90,0.0,0.0,91,0.00,,,0.22,meteobridge,2013-09-23 05:41:00,
2013-09-22 23:48:00,61.5,58.8,30.22,East,90,3.1,3.1,91,0.00,,,0.22,meteobridge,2013-09-23 05:48:00,
2013-09-22 23:54:00,61.7,59.0,30.22,NE,45,1.6,3.1,91,0.00,,,0.22,meteobridge,2013-09-23 05:54:00,